Location: Kuffner-Sternwarte
(48.2130°N, 16.2960°E)
Time: 05:50:10
(UTC+02:00)

ACS3 Solar Sail - Pass Details

Date: 22 September 2024
Orbit: 963 x 1036 km, 97.4° (Epoch: 04 October)

Event Time Altitude Azimuth Distance (km) Brightness Sun altitude
Exits shadow 20:15:03 15° 137° (SE) 2,506 3.4 -14.5°
Maximum altitude 20:20:14 49° 68° (ENE) 1,321 2.2 -15.3°
Drops below altitude 10° 20:26:22 10° 356° (N) 2,839 4.5 -16.3°
Sets 20:28:57 0° 352° (N) 3,789 5.3 -16.7°
